Weather History for KDVP - December, 2012

Change the Weather History Date:

Tuesday, December 4, 2012

  Actual Average (KOTG) Record (KOTG)
Temperature  
Mean Temperature 28 °F -  
Max Temperature 37 °F 32 °F 52 °F (1989)
Min Temperature 19 °F 18 °F -13 °F (1991)
Degree Days  
Heating Degree Days 37    
Moisture  
Dew Point 18 °F    
Average Humidity 61    
Maximum Humidity 80    
Minimum Humidity 46    
Precipitation  
Precipitation 0.00 in - - ()
Sea Level Pressure  
Sea Level Pressure 30.20 in    
Wind  
Wind Speed 9 mph (NNW)    
Max Wind Speed 14 mph    
Max Gust Speed 18 mph    
Visibility 10 miles    
Events      
Averages and records for this station are not official NWS values.
T = Trace of Precipitation, MM = Missing Value Source: NWS Daily Summary

Daily Weather History Graph

Daily Weather History Graph

Search for Another Location

Airport or City:

Trip Planner

Search our weather history database for the weather conditions in past years. The results will help you decide how hot, cold, wet, or windy it might be!

Date:

Astronomy

Dec. 04, 2012 Rise Set
Actual Time 7:41 AM CST 4:45 PM CST
Civil Twilight 7:08 AM CST 5:18 PM CST
Nautical Twilight 6:32 AM CST 5:54 PM CST
Astronomical Twilight 5:57 AM CST 6:29 PM CST
Moon 10:42 PM CST (12/4) 11:29 AM CST (12/4)
Length of Visible Light 10h 09m
Length of Day
9h 03m
Waning Gibbous, 69% of the Moon is Illuminated
Dec 4
Waning Gibbous
Dec 6
Last Quarter
Dec 13
New
Dec 19
First Quarter
Dec 28
Full

Hourly Weather History & Observations

Time (CST) Temp. Windchill Dew Point Humidity Pressure Visibility Wind Dir Wind Speed Gust Speed Precip Events Conditions
12:15 AM 36.9 °F 29.6 °F 20.8 °F 52% 30.02 in 10.0 mi WSW 10.4 mph - N/A   Clear
12:35 AM 36.7 °F 28.9 °F 20.8 °F 53% 30.02 in 10.0 mi West 11.5 mph - N/A   Clear
12:55 AM 36.3 °F 28.9 °F 20.8 °F 53% 30.01 in 10.0 mi WSW 10.4 mph - N/A   Clear
1:15 AM 36.5 °F 29.2 °F 20.8 °F 53% 30.02 in 10.0 mi West 10.4 mph - N/A   Clear
1:35 AM 36.7 °F 28.9 °F 20.7 °F 52% 30.02 in 10.0 mi WSW 11.5 mph - N/A   Clear
1:55 AM 35.6 °F 26.6 °F 20.8 °F 55% 30.02 in 10.0 mi WSW 13.8 mph - N/A   Clear
2:15 AM 37.6 °F 29.1 °F 20.5 °F 50% 30.02 in 10.0 mi WSW 13.8 mph - N/A   Clear
2:35 AM 37.4 °F 29.3 °F 20.7 °F 51% 30.03 in 10.0 mi WSW 12.7 mph 18.4 mph N/A   Clear
2:55 AM 36.0 °F 27.5 °F 20.3 °F 53% 30.04 in 10.0 mi West 12.7 mph - N/A   Clear
3:14 AM 35.4 °F 26.8 °F 20.3 °F 54% 30.04 in 10.0 mi WSW 12.7 mph - N/A   Clear
3:35 AM 34.7 °F 25.5 °F 20.3 °F 56% 30.04 in 10.0 mi West 13.8 mph - N/A   Clear
3:55 AM 35.1 °F 26.4 °F 19.9 °F 54% 30.03 in 10.0 mi West 12.7 mph - N/A   Clear
4:15 AM 34.3 °F 26.5 °F 20.1 °F 56% 30.04 in 10.0 mi West 10.4 mph - N/A   Clear
4:35 AM 33.1 °F 24.9 °F 20.1 °F 59% 30.05 in 10.0 mi West 10.4 mph - N/A   Clear
4:55 AM 31.5 °F 22.9 °F 20.1 °F 63% 30.06 in 10.0 mi NW 10.4 mph - N/A   Clear
5:15 AM 31.3 °F 26.6 °F 19.9 °F 63% 30.08 in 10.0 mi NW 4.6 mph - N/A   Clear
5:35 AM 30.9 °F 22.8 °F 20.1 °F 64% 30.07 in 10.0 mi West 9.2 mph - N/A   Clear
5:55 AM 31.1 °F 23.1 °F 20.3 °F 64% 30.08 in 10.0 mi WNW 9.2 mph - N/A   Clear
6:15 AM 29.1 °F 22.1 °F 19.8 °F 68% 30.10 in 10.0 mi WNW 6.9 mph - N/A   Clear
6:34 AM 28.4 °F 20.4 °F 20.1 °F 71% 30.11 in 10.0 mi WNW 8.1 mph - N/A   Clear
6:55 AM 27.5 °F 19.3 °F 19.4 °F 72% 30.12 in 10.0 mi West 8.1 mph - N/A   Clear
7:15 AM 26.6 °F 20.0 °F 19.4 °F 74% 30.13 in 10.0 mi WNW 5.8 mph - N/A   Clear
7:35 AM 26.6 °F 22.6 °F 19.6 °F 75% 30.14 in 10.0 mi North 3.5 mph - N/A   Clear
7:56 AM 26.2 °F 19.6 °F 19.4 °F 75% 30.15 in 10.0 mi NNW 5.8 mph - N/A   Clear
8:15 AM 25.9 °F 17.4 °F 20.1 °F 79% 30.17 in 10.0 mi NNW 8.1 mph - N/A   Clear
8:35 AM 27.0 °F 21.6 °F 21.0 °F 78% 30.18 in 10.0 mi North 4.6 mph - N/A   Clear
8:55 AM 28.4 °F 20.4 °F 22.8 °F 80% 30.19 in 10.0 mi NNW 8.1 mph - N/A   Clear
9:15 AM 29.1 °F 20.6 °F 23.0 °F 78% 30.20 in 10.0 mi NNW 9.2 mph - N/A   Clear
9:35 AM 29.8 °F 22.2 °F 22.8 °F 75% 30.21 in 10.0 mi NNW 8.1 mph - N/A   Clear
9:54 AM 30.7 °F 24.1 °F 22.8 °F 72% 30.22 in 10.0 mi NW 6.9 mph - N/A   Clear
10:15 AM 32.0 °F 24.8 °F 22.8 °F 69% 30.22 in 10.0 mi NW 8.1 mph - N/A   Clear
10:35 AM 32.9 °F 25.3 °F 22.1 °F 65% 30.22 in 10.0 mi NW 9.2 mph - N/A   Clear
10:55 AM 34.0 °F 27.2 °F 21.9 °F 61% 30.22 in 10.0 mi NNW 8.1 mph - N/A   Clear
11:15 AM 34.9 °F 27.7 °F 22.1 °F 60% 30.22 in 10.0 mi NNW 9.2 mph - N/A   Clear
11:35 AM 35.6 °F 28.6 °F 21.9 °F 58% 30.22 in 10.0 mi NW 9.2 mph - N/A   Clear
11:55 AM 36.5 °F 30.3 °F 21.6 °F 55% 30.23 in 10.0 mi North 8.1 mph - N/A   Clear
12:15 PM 36.7 °F 29.9 °F 21.0 °F 53% 30.24 in 10.0 mi NNW 9.2 mph - N/A   Clear
12:35 PM 36.5 °F 30.3 °F 20.3 °F 52% 30.24 in 10.0 mi North 8.1 mph - N/A   Clear
12:55 PM 37.0 °F 30.4 °F 19.9 °F 50% 30.24 in 10.0 mi NW 9.2 mph - N/A   Clear
1:15 PM 37.2 °F 30.0 °F 19.8 °F 49% 30.24 in 10.0 mi NNW 10.4 mph - N/A   Clear
1:35 PM 37.4 °F 32.1 °F 19.4 °F 48% 30.24 in 10.0 mi NNW 6.9 mph - N/A   Clear
1:55 PM 37.8 °F 30.7 °F 19.4 °F 48% 30.24 in 10.0 mi NNW 10.4 mph - N/A   Clear
2:14 PM 37.9 °F 31.5 °F 19.2 °F 47% 30.23 in 10.0 mi NNW 9.2 mph - N/A   Clear
2:35 PM 37.8 °F 32.5 °F 18.5 °F 46% 30.24 in 10.0 mi NNW 6.9 mph - N/A   Clear
2:55 PM 37.4 °F 30.8 °F 18.3 °F 46% 30.24 in 10.0 mi NNW 9.2 mph - N/A   Clear
3:15 PM 36.5 °F 29.2 °F 18.1 °F 47% 30.25 in 10.0 mi North 10.4 mph - N/A   Clear
3:35 PM 35.6 °F 28.0 °F 18.0 °F 49% 30.25 in 10.0 mi North 10.4 mph - N/A   Clear
3:55 PM 34.7 °F 27.5 °F 17.6 °F 50% 30.26 in 10.0 mi NNE 9.2 mph - N/A   Clear
4:15 PM 33.3 °F 26.4 °F 17.2 °F 52% 30.27 in 10.0 mi North 8.1 mph - N/A   Clear
4:55 PM 30.4 °F 26.9 °F 16.5 °F 56% 30.28 in 10.0 mi NE 3.5 mph - N/A   Clear
5:15 PM 28.2 °F 24.4 °F 16.0 °F 60% 30.29 in 10.0 mi NNE 3.5 mph - N/A   Clear
5:34 PM 26.1 °F 19.4 °F 15.1 °F 63% 30.29 in 10.0 mi North 5.8 mph - N/A   Clear
5:55 PM 26.6 °F 17.5 °F 15.4 °F 63% 30.29 in 10.0 mi North 9.2 mph - N/A   Clear
6:15 PM 25.7 °F 19.0 °F 14.9 °F 64% 30.29 in 10.0 mi NNE 5.8 mph - N/A   Clear
6:35 PM 25.3 °F 19.7 °F 14.9 °F 65% 30.29 in 10.0 mi North 4.6 mph - N/A   Clear
6:55 PM 24.8 °F 16.1 °F 14.9 °F 66% 30.29 in 10.0 mi North 8.1 mph - N/A   Clear
7:15 PM 24.4 °F 16.5 °F 14.2 °F 65% 30.29 in 10.0 mi North 6.9 mph - N/A   Clear
7:35 PM 24.1 °F 17.0 °F 13.8 °F 65% 30.29 in 10.0 mi NNE 5.8 mph - N/A   Clear
7:55 PM 23.9 °F 18.0 °F 13.8 °F 65% 30.29 in 10.0 mi North 4.6 mph - N/A   Clear
8:15 PM 23.7 °F 19.3 °F 14.0 °F 66% 30.31 in 10.0 mi North 3.5 mph - N/A   Clear
8:35 PM 23.7 °F 17.8 °F 13.8 °F 66% 30.32 in 10.0 mi NNE 4.6 mph - N/A   Clear
8:55 PM 23.2 °F 18.7 °F 12.7 °F 64% 30.32 in 10.0 mi NE 3.5 mph - N/A   Clear
9:15 PM 22.6 °F 16.5 °F 12.7 °F 66% 30.32 in 10.0 mi ENE 4.6 mph - N/A   Clear
9:35 PM 21.9 °F 15.7 °F 12.2 °F 66% 30.34 in 10.0 mi NNE 4.6 mph - N/A   Clear
9:54 PM 21.6 °F 14.0 °F 12.0 °F 67% 30.33 in 10.0 mi NE 5.8 mph - N/A   Clear
10:15 PM 21.4 °F 13.8 °F 11.8 °F 67% 30.34 in 10.0 mi ENE 5.8 mph - N/A   Clear
10:35 PM 20.8 °F 13.2 °F 11.8 °F 68% 30.35 in 10.0 mi NE 5.8 mph - N/A   Clear
10:55 PM 20.1 °F 13.6 °F 11.8 °F 70% 30.35 in 10.0 mi ENE 4.6 mph - N/A   Clear
11:15 PM 20.5 °F 14.0 °F 11.7 °F 69% 30.35 in 10.0 mi ENE 4.6 mph - N/A   Clear
11:35 PM 19.9 °F 12.1 °F 11.3 °F 69% 30.35 in 10.0 mi ENE 5.8 mph - N/A   Clear
11:55 PM 19.4 °F 14.3 °F 11.3 °F 71% 30.36 in 10.0 mi NE 3.5 mph - N/A   Clear